Eureka, Nunavut

11:16 PM CDT on August 18, 2017 (GMT -0500)
Eureka

Weather History for CWEU - April, 2014

Change the Weather History Date:

Saturday, April 5, 2014

  Actual Average Record
Temperature  
Mean Temperature -33 °F -  
Max Temperature -24 °F -6 °F 89 °F (1999)
Min Temperature -42 °F -21 °F -42 °F (2014)
Degree Days  
Heating Degree Days 98    
Moisture  
Dew Point -40 °F    
Average Humidity 63    
Maximum Humidity 69    
Minimum Humidity 43    
Precipitation  
Precipitation 0.00 in 0.00 in - ()
Sea Level Pressure  
Sea Level Pressure 29.96 in    
Wind  
Wind Speed 2 mph ()    
Max Wind Speed 8 mph    
Max Gust Speed -    
Visibility 15.0 miles    
Events      
Averages and records for this station are not official NWS values.
T = Trace of Precipitation, MM = Missing Value Source: Averaged Metar Reports

Daily Weather History Graph

Daily Weather History Graph

Search for Another Location

Airport or City:

Trip Planner

Search our weather history database for the weather conditions in past years. The results will help you decide how hot, cold, wet, or windy it might be!

Date:

Astronomy

Apr. 05, 2014 Rise Set
Actual Time 3:52 AM CDT 9:49 PM CDT
Civil Twilight Sun does not set Sun does not set
Nautical Twilight Sun does not set Sun does not set
Astronomical Twilight Sun does not set Sun does not set
Moon No Moon Rise No Moon Set
Length of Visible Light 24h 00m
Length of Day
17h 57m
Waxing Crescent, 34% of the Moon is Illuminated
Apr 5
Waxing Crescent
Apr 7
First Quarter
Apr 15
Full
Apr 22
Last Quarter
Apr 29
New

Hourly Weather History & Observations

Time (CDT) Temp. Windchill Dew Point Humidity Pressure Visibility Wind Dir Wind Speed Gust Speed Precip Events Conditions
1:00 AM -37 °F - -44 °F 49% 29.87 in 15 mi East 2.3 mph - -   Scattered Clouds
1:00 AM -36.4 °F - -43.6 °F 67% 29.87 in 15.0 mi East 2.3 mph - N/A   Partly Cloudy
2:00 AM -38.2 °F - -47.2 °F 61% 29.88 in 15.0 mi Calm Calm - N/A   Partly Cloudy
3:00 AM -36.4 °F - -43.6 °F 67% 29.88 in 15.0 mi Calm Calm - N/A   Partly Cloudy
4:00 AM -38.2 °F -51.5 °F -45.4 °F 67% 29.89 in 15.0 mi ESE 3.5 mph - N/A   Partly Cloudy
5:00 AM -34.6 °F - -43.6 °F 61% 29.91 in 15.0 mi East 2.3 mph - N/A   Partly Cloudy
6:00 AM -41.8 °F - -49.0 °F 67% 29.91 in 15.0 mi Calm Calm - N/A   Partly Cloudy
7:00 AM -36 °F - -44 °F 43% 29.91 in 15 mi ESE 3.5 mph - -   Scattered Clouds
7:00 AM -36.4 °F -49.4 °F -43.6 °F 67% 29.91 in 15.0 mi ESE 3.5 mph - N/A   Partly Cloudy
8:00 AM -36.4 °F -58.5 °F -43.6 °F 67% 29.93 in 15.0 mi ESE 8.1 mph - N/A   Partly Cloudy
9:00 AM -32.8 °F -45.3 °F -41.8 °F 62% 29.94 in 15.0 mi ENE 3.5 mph - N/A   Partly Cloudy
10:00 AM -29.2 °F -41.2 °F -38.2 °F 62% 29.95 in 15.0 mi East 3.5 mph - N/A   Partly Cloudy
11:00 AM -31.0 °F -43.3 °F -40.0 °F 62% 29.96 in 15.0 mi ESE 3.5 mph - N/A   Partly Cloudy
12:00 PM -29.2 °F - -38.2 °F 62% 29.96 in 15.0 mi Calm Calm - N/A   Scattered Clouds
1:00 PM -28 °F - -36 °F 49% 29.97 in 15 mi East 2.3 mph - -   Clear
1:00 PM -29.2 °F - -36.4 °F 68% 29.97 in 15.0 mi East 2.3 mph - N/A   Mostly Cloudy
2:00 PM -27.4 °F - -34.6 °F 69% 29.99 in 15.0 mi East 2.3 mph - N/A   Mostly Cloudy
3:00 PM -23.8 °F - -32.8 °F 63% 30.00 in 15.0 mi Calm Calm - N/A   Mostly Cloudy
4:00 PM -27.4 °F - -34.6 °F 69% 30.01 in 15.0 mi ENE 2.3 mph - N/A   Mostly Cloudy
5:00 PM -27.4 °F - -34.6 °F 69% 30.02 in 15.0 mi Calm Calm - N/A   Scattered Clouds
6:00 PM -27.4 °F - -34.6 °F 69% 30.03 in 15.0 mi East 2.3 mph - N/A   Scattered Clouds
7:00 PM -28 °F - -36 °F 48% 30.04 in 15 mi Calm Calm - -   Scattered Clouds
7:00 PM -27.4 °F - -36.4 °F 62% 30.04 in 15.0 mi Calm Calm - N/A   Partly Cloudy
8:00 PM -29.2 °F - -36.4 °F 68% 30.06 in 15.0 mi Calm Calm - N/A   Partly Cloudy
9:00 PM -29.2 °F - -36.4 °F 68% 30.07 in 15.0 mi East 2.3 mph - N/A   Scattered Clouds
10:00 PM -32.8 °F - -41.8 °F 62% 30.09 in 15.0 mi Calm Calm - N/A   Mostly Cloudy